Weather History for KTTS - August, 2013

Change the Weather History Date:

Wednesday, August 21, 2013

  Actual Average Record
Temperature  
Mean Temperature 83 °F -  
Max Temperature 89 °F 86 °F 93 °F (1997)
Min Temperature 77 °F 71 °F 69 °F (2001)
Cooling Degree Days 18    
Growing Degree Days 33 (Base 50)    
Moisture  
Dew Point 77 °F    
Average Humidity 88    
Maximum Humidity 100    
Minimum Humidity 66    
Precipitation  
Precipitation 0.29 in - - ()
Sea Level Pressure  
Sea Level Pressure 30.10 in    
Wind  
Wind Speed 5 mph (ESE)    
Max Wind Speed 17 mph    
Max Gust Speed 30 mph    
Visibility 9 miles    
Events Rain , Thunderstorm    
Averages and records for this station are not official NWS values.
T = Trace of Precipitation, MM = Missing Value Source: NWS Daily Summary

Daily Weather History Graph

Daily Weather History Graph

Search for Another Location

Airport or City:

Trip Planner

Search our weather history database for the weather conditions in past years. The results will help you decide how hot, cold, wet, or windy it might be!

Date:

Astronomy

Aug. 21, 2013 Rise Set
Actual Time 6:55 AM EDT 7:55 PM EDT
Civil Twilight 6:30 AM EDT 8:20 PM EDT
Nautical Twilight 6:01 AM EDT 8:49 PM EDT
Astronomical Twilight 5:32 AM EDT 9:18 PM EDT
Moon 8:14 PM EDT (8/21) 7:25 AM EDT (8/21)
Length of Visible Light 13h 49m
Length of Day
13h 00m
Full, 100% of the Moon is Illuminated
Aug 21
Full
Aug 28
Last Quarter
Sep 5
New
Sep 12
First Quarter
Sep 19
Full

Hourly Weather History & Observations

Time (EDT) Temp. Heat Index Dew Point Humidity Pressure Visibility Wind Dir Wind Speed Gust Speed Precip Events Conditions
12:58 AM 80.2 °F 86.0 °F 76.5 °F 88% 30.12 in 10.0 mi ESE 5.8 mph - N/A Thunderstorm Clear
1:58 AM 79.9 °F - 75.0 °F 85% 30.10 in 10.0 mi East 4.6 mph - N/A Thunderstorm Clear
2:58 AM 79.7 °F - 75.9 °F 88% 30.10 in 10.0 mi East 4.6 mph - N/A   Partly Cloudy
3:58 AM 79.7 °F - 76.5 °F 90% 30.08 in 10.0 mi ESE 5.8 mph - N/A   Scattered Clouds
4:27 AM 80.6 °F 87.1 °F 77.0 °F 89% 30.06 in 10.0 mi SE 2.3 mph - N/A Thunderstorm Light Drizzle
4:58 AM 79.2 °F - 76.1 °F 90% 30.09 in 10.0 mi SSE 6.9 mph - 0.00 in Rain Light Rain
5:20 AM 78.8 °F - 77.0 °F 94% 30.08 in 10.0 mi South 5.8 mph - N/A   Scattered Clouds
5:40 AM 78.8 °F - 77.0 °F 94% 30.07 in 6.0 mi SSW 5.8 mph - N/A Rain Light Rain
5:48 AM 78.8 °F - 77.0 °F 94% 30.07 in 4.0 mi South 2.3 mph - N/A Rain , Thunderstorm Thunderstorms and Rain
5:55 AM 78.8 °F - 77.0 °F 94% 30.08 in 9.0 mi Calm Calm - N/A Thunderstorm Thunderstorm
5:58 AM 78.8 °F - 77.0 °F 94% 30.08 in 10.0 mi SSW 1.2 mph - 0.02 in Thunderstorm Thunderstorm
6:03 AM 78.8 °F - 77.0 °F 94% 30.07 in 10.0 mi SSW 2.3 mph - N/A Thunderstorm Thunderstorm
6:09 AM 78.8 °F - 77.0 °F 94% 30.07 in 10.0 mi SSW 3.5 mph - N/A Thunderstorm Mostly Cloudy
6:29 AM 78.8 °F - 77.0 °F 94% 30.07 in 10.0 mi SW 1.2 mph - N/A Rain , Thunderstorm Heavy Rain
6:40 AM 78.8 °F - 77.0 °F 94% 30.08 in 5.0 mi Calm Calm - N/A Thunderstorm Overcast
6:58 AM 78.3 °F - 76.5 °F 94% 30.09 in 10.0 mi NNE 3.5 mph - 0.02 in Thunderstorm Overcast
7:51 AM 77.0 °F - 77.0 °F 100% 30.11 in 10.0 mi Variable 2.3 mph - N/A Rain Light Rain
7:58 AM 77.9 °F - 77.7 °F 99% 30.12 in 3.0 mi Variable 1.2 mph - 0.06 in Rain Light Rain
8:03 AM 78.8 °F - 78.8 °F 100% 30.11 in 3.0 mi NE 2.3 mph - N/A Rain Light Rain
8:04 AM 78.8 °F - 78.8 °F 100% 30.11 in 4.0 mi NNE 1.2 mph - N/A   Overcast
8:09 AM 78.8 °F - 78.8 °F 100% 30.11 in 10.0 mi Calm Calm - N/A   Overcast
8:58 AM 80.6 °F 89.1 °F 80.2 °F 99% 30.12 in 10.0 mi SSE 3.5 mph - 0.00 in Thunderstorm Partly Cloudy
9:17 AM 82.4 °F 94.0 °F 80.6 °F 94% 30.12 in 10.0 mi SE 5.8 mph - N/A   Light Drizzle
9:41 AM 80.6 °F 87.1 °F 77.0 °F 89% 30.13 in 9.0 mi ESE 5.8 mph - N/A   Mostly Cloudy
9:58 AM 81.5 °F 89.7 °F 77.9 °F 89% 30.14 in 10.0 mi ESE 4.6 mph - 0.05 in   Mostly Cloudy
10:58 AM 86.7 °F 101.5 °F 79.3 °F 79% 30.15 in 10.0 mi East 10.4 mph - N/A   Scattered Clouds
11:58 AM 87.8 °F 101.3 °F 78.1 °F 73% 30.15 in 10.0 mi East 11.5 mph - N/A   Mostly Cloudy
12:58 PM 88.9 °F 102.1 °F 77.4 °F 69% 30.14 in 10.0 mi ESE 11.5 mph - N/A Thunderstorm Scattered Clouds
1:20 PM 89.6 °F 102.2 °F 77.0 °F 66% 30.12 in 10.0 mi East 12.7 mph 18.4 mph N/A Rain Light Rain
1:42 PM 87.8 °F 102.5 °F 78.8 °F 75% 30.12 in 10.0 mi ESE 10.4 mph - N/A   Scattered Clouds
1:58 PM 88.9 °F 103.3 °F 78.4 °F 71% 30.12 in 10.0 mi East 12.7 mph 18.4 mph 0.00 in   Scattered Clouds
2:18 PM 89.6 °F 102.2 °F 77.0 °F 66% 30.10 in 10.0 mi East 11.5 mph - N/A   Mostly Cloudy
2:28 PM 89.6 °F 102.2 °F 77.0 °F 66% 30.10 in 10.0 mi East 12.7 mph 18.4 mph N/A   Scattered Clouds
2:33 PM 87.8 °F 99.7 °F 77.0 °F 70% 30.10 in 10.0 mi East 11.5 mph - N/A   Mostly Cloudy
2:55 PM 87.8 °F 102.5 °F 78.8 °F 75% 30.10 in 10.0 mi ENE 11.5 mph - N/A Thunderstorm Thunderstorm
2:58 PM 87.8 °F 102.5 °F 78.8 °F 75% 30.10 in 10.0 mi East 10.4 mph - N/A Thunderstorm Thunderstorm
3:03 PM 86.0 °F 96.9 °F 77.0 °F 74% 30.11 in 7.0 mi ESE 17.3 mph 29.9 mph N/A Rain , Thunderstorm Thunderstorms and Rain
3:08 PM 80.6 °F 86.2 °F 75.2 °F 84% 30.11 in 2.0 mi East 11.5 mph 29.9 mph N/A Rain , Thunderstorm Thunderstorms and Rain
3:18 PM 77.0 °F - 75.2 °F 94% 30.11 in 5.0 mi ESE 4.6 mph - N/A Rain , Thunderstorm Heavy Thunderstorms and Rain
3:27 PM 77.0 °F - 75.2 °F 94% 30.09 in 7.0 mi ENE 4.6 mph - N/A Rain , Thunderstorm Light Rain
3:28 PM 77.0 °F - 75.2 °F 94% 30.09 in 9.0 mi ENE 5.8 mph - N/A Thunderstorm Scattered Clouds
3:31 PM 77.0 °F - 75.2 °F 94% 30.09 in 10.0 mi NE 3.5 mph - N/A Thunderstorm Thunderstorm
3:53 PM 78.8 °F - 77.0 °F 94% 30.08 in 10.0 mi North 3.5 mph - N/A   Scattered Clouds
3:58 PM 79.0 °F - 77.7 °F 96% 30.09 in 10.0 mi North 3.5 mph - 0.14 in   Partly Cloudy
4:58 PM 80.8 °F 88.9 °F 79.3 °F 95% 30.09 in 10.0 mi East 11.5 mph - N/A   Partly Cloudy
5:58 PM 81.3 °F 88.7 °F 77.0 °F 87% 30.09 in 10.0 mi East 9.2 mph - N/A   Partly Cloudy
6:58 PM 79.9 °F - 75.2 °F 86% 30.09 in 10.0 mi East 5.8 mph - N/A   Scattered Clouds
7:58 PM 78.6 °F - 75.9 °F 91% 30.09 in 10.0 mi ENE 5.8 mph - N/A   Partly Cloudy
8:58 PM 79.2 °F - 75.4 °F 88% 30.10 in 10.0 mi ESE 4.6 mph - N/A   Scattered Clouds
9:58 PM 79.5 °F - 77.4 °F 93% 30.11 in 10.0 mi East 4.6 mph - N/A   Mostly Cloudy
10:58 PM 80.4 °F 86.8 °F 77.2 °F 90% 30.10 in 10.0 mi East 6.9 mph - N/A   Partly Cloudy
11:58 PM 80.4 °F 87.4 °F 78.1 °F 93% 30.11 in 10.0 mi East 4.6 mph - N/A   Overcast